| time (UTC) | temp F | wind direction | speed MPH | gust MPH | rain 1hr in | rain 24hr in | rain mn in | humidity % | barometer mb |
| 20260507090023 | 51 | 259 | 0.0 | 0.0 | 0.00 | 0.00 | 0.03 | 89 | 1004.9 |
| 20260507084525 | 52 | 258 | 0.0 | 0.0 | 0.00 | 0.00 | 0.03 | 88 | 1005.0 |
| 20260507083018 | 52 | 237 | 0.0 | 0.0 | 0.00 | 0.00 | 0.03 | 88 | 1004.6 |
| 20260507081525 | 53 | 241 | 0.0 | 0.0 | 0.00 | 0.00 | 0.02 | 88 | 1004.2 |
| 20260507080014 | 53 | 269 | 0.0 | 0.0 | 0.00 | 0.00 | 0.01 | 87 | 1004.5 |
| 20260507074513 | 54 | 290 | 1.0 | 0.0 | 0.00 | 0.00 | 0.01 | 85 | 1004.4 |
| 20260507073010 | 54 | 255 | 0.0 | 0.0 | 0.00 | 0.00 | 0.00 | 84 | 1004.1 |
| 20260507071511 | 54 | 257 | 0.0 | 0.0 | 0.00 | 0.00 | 0.00 | 83 | 1003.8 |
| 20260507070012 | 54 | 327 | 1.0 | 0.0 | 0.00 | 0.00 | 0.00 | 83 | 1003.7 |
| 20260507064505 | 55 | 290 | 1.0 | 0.0 | 0.00 | 0.00 | 0.00 | 87 | 1003.8 |
| 20260507063003 | 56 | 306 | 2.0 | 0.0 | 0.00 | 0.00 | 0.00 | 88 | 1003.8 |
| 20260507061502 | 56 | 302 | 1.0 | 0.0 | 0.00 | 0.00 | 0.00 | 88 | 1003.4 |
| 20260507060103 | 56 | 282 | 2.0 | 0.0 | 0.00 | 0.00 | 0.00 | 89 | 1003.9 |
| 20260507054559 | 57 | 295 | 2.0 | 0.0 | 0.00 | 0.00 | 0.00 | 89 | 1004.0 |
| 20260507053055 | 57 | 288 | 1.0 | 0.0 | 0.00 | 0.00 | 0.00 | 92 | 1004.1 |
| 20260507051553 | 58 | 251 | 1.0 | 0.0 | 0.00 | 0.00 | 0.00 | 91 | 1003.7 |
| 20260507050049 | 59 | 254 | 2.0 | 0.0 | 0.00 | 0.00 | 0.00 | 92 | 1003.8 |
| 20260507044604 | 59 | 284 | 1.0 | 0.0 | 0.00 | 0.00 | 0.00 | 93 | 1003.7 |
| 20260507043100 | 60 | 277 | 0.0 | 0.0 | 0.00 | 0.00 | 0.00 | 93 | 1003.6 |
| 20260507041544 | 60 | 245 | 0.0 | 0.0 | 0.00 | 0.00 | 0.00 | 93 | 1003.7 |
| 20260507040042 | 60 | 218 | 0.0 | 0.0 | 0.00 | 0.00 | 0.00 | 93 | 1004.0 |
| 20260507034542 | 60 | 236 | 0.0 | 0.0 | 0.00 | 0.00 | 0.04 | 93 | 1003.9 |
| 20260507033040 | 60 | 204 | 1.0 | 0.0 | 0.00 | 0.00 | 0.04 | 93 | 1003.8 |
| 20260507031545 | 60 | 232 | 1.0 | 0.0 | 0.00 | 0.00 | 0.04 | 93 | 1003.4 |
| 20260507030041 | 59 | 222 | 1.0 | 0.0 | 0.00 | 0.00 | 0.04 | 93 | 1003.1 |
| 20260507024539 | 59 | 261 | 1.0 | 0.0 | 0.00 | 0.00 | 0.04 | 93 | 1003.4 |
| 20260507023037 | 59 | 272 | 1.0 | 0.0 | 0.00 | 0.00 | 0.04 | 93 | 1003.4 |
| 20260507021539 | 59 | 223 | 0.0 | 0.0 | 0.00 | 0.00 | 0.04 | 93 | 1003.4 |
| 20260507020048 | 59 | 238 | 0.0 | 0.0 | 0.00 | 0.00 | 0.04 | 93 | 1003.3 |
| 20260507014536 | 59 | 207 | 1.0 | 0.0 | 0.00 | 0.00 | 0.04 | 93 | 1003.4 |
| 20260507013034 | 58 | 218 | 0.0 | 0.0 | 0.00 | 0.00 | 0.04 | 93 | 1003.6 |
| 20260507011543 | 58 | 216 | 1.0 | 0.0 | 0.00 | 0.00 | 0.04 | 93 | 1003.7 |
| 20260507010036 | 58 | 224 | 1.0 | 0.0 | 0.00 | 0.00 | 0.04 | 92 | 1003.8 |
| 20260507004533 | 58 | 212 | 0.0 | 0.0 | 0.00 | 0.00 | 0.04 | 92 | 1003.8 |
| 20260507003031 | 58 | 231 | 0.0 | 0.0 | 0.00 | 0.00 | 0.04 | 92 | 1003.8 |
| 20260507001602 | 58 | 239 | 1.0 | 0.0 | 0.00 | 0.00 | 0.04 | 92 | 1003.7 |
| 20260507000035 | 59 | 196 | 1.0 | 0.0 | 0.00 | 0.00 | 0.04 | 92 | 1003.6 |
| 20260506234528 | 59 | 206 | 0.0 | 0.0 | 0.00 | 0.00 | 0.03 | 91 | 1003.6 |
| 20260506233026 | 60 | 238 | 0.0 | 0.0 | 0.00 | 0.00 | 0.03 | 91 | 1003.5 |
| 20260506231525 | 60 | 270 | 0.0 | 0.0 | 0.00 | 0.00 | 0.02 | 90 | 1003.5 |
| 20260506230033 | 60 | 269 | 0.0 | 0.0 | 0.00 | 0.00 | 0.02 | 90 | 1003.4 |
| 20260506224522 | 61 | 203 | 1.0 | 0.0 | 0.00 | 0.00 | 0.02 | 92 | 1003.7 |
| 20260506223028 | 61 | 196 | 0.0 | 0.0 | 0.00 | 0.00 | 0.02 | 89 | 1003.8 |
| 20260506221519 | 62 | 227 | 0.0 | 0.0 | 0.00 | 0.00 | 0.02 | 89 | 1003.9 |
| 20260506220018 | 62 | 254 | 0.0 | 0.0 | 0.00 | 0.00 | 0.01 | 88 | 1004.1 |
| 20260506214516 | 63 | 180 | 0.0 | 0.0 | 0.00 | 0.00 | 0.01 | 87 | 1004.3 |
| 20260506213017 | 63 | 199 | 1.0 | 0.0 | 0.00 | 0.00 | 0.01 | 87 | 1004.3 |
| 20260506211520 | 63 | 229 | 1.0 | 0.0 | 0.00 | 0.00 | 0.01 | 86 | 1004.3 |
| 20260506210029 | 63 | 234 | 1.0 | 0.0 | 0.00 | 0.00 | 0.01 | 85 | 1004.4 |
| 20260506204514 | 63 | 289 | 1.0 | 0.0 | 0.00 | 0.00 | 0.01 | 84 | 1004.7 |
| 20260506203013 | 64 | 209 | 1.0 | 0.0 | 0.00 | 0.00 | 0.01 | 82 | 1004.7 |
| 20260506201519 | 64 | 213 | 1.0 | 0.0 | 0.00 | 0.00 | 0.01 | 82 | 1004.4 |
| 20260506200012 | 65 | 254 | 0.0 | 0.0 | 0.00 | 0.00 | 0.01 | 81 | 1004.3 |
| 20260506194510 | 66 | 216 | 0.0 | 0.0 | 0.00 | 0.00 | 0.01 | 79 | 1004.7 |
| 20260506193018 | 67 | 177 | 1.0 | 0.0 | 0.00 | 0.00 | 0.00 | 75 | 1004.8 |
| 20260506191511 | 69 | 230 | 1.0 | 0.0 | 0.00 | 0.00 | 0.00 | 72 | 1004.5 |
| 20260506190011 | 70 | 205 | 1.0 | 0.0 | 0.00 | 0.00 | 0.00 | 67 | 1004.5 |
| 20260506184507 | 70 | 30 | 0.0 | 0.0 | 0.00 | 0.00 | 0.00 | 66 | 1004.6 |
| 20260506183007 | 71 | 49 | 2.0 | 0.0 | 0.00 | 0.00 | 0.00 | 64 | 1004.6 |
| 20260506181505 | 71 | 184 | 1.0 | 0.0 | 0.00 | 0.00 | 0.00 | 63 | 1004.8 |
| 20260506180005 | 71 | 288 | 0.0 | 0.0 | 0.00 | 0.00 | 0.00 | 65 | 1005.1 |
| 20260506174503 | 71 | 226 | 1.0 | 0.0 | 0.00 | 0.00 | 0.00 | 65 | 1005.2 |
| 20260506173003 | 71 | 136 | 1.0 | 0.0 | 0.00 | 0.00 | 0.00 | 65 | 1005.4 |
| 20260506171601 | 71 | 63 | 1.0 | 0.0 | 0.00 | 0.00 | 0.00 | 65 | 1005.4 |
| 20260506170109 | 71 | 107 | 0.0 | 0.0 | 0.00 | 0.00 | 0.00 | 65 | 1005.5 |
| 20260506164625 | 71 | 67 | 1.0 | 0.0 | 0.00 | 0.00 | 0.00 | 65 | 1005.6 |
| 20260506163111 | 72 | 193 | 0.0 | 0.0 | 0.00 | 0.00 | 0.00 | 64 | 1005.7 |
| 20260506161555 | 72 | 241 | 0.0 | 0.0 | 0.00 | 0.00 | 0.00 | 64 | 1006.1 |
| 20260506154555 | 72 | 269 | 1.0 | 0.0 | 0.00 | 0.00 | 0.00 | 63 | 1006.6 |
| 20260506153049 | 72 | 126 | 1.0 | 0.0 | 0.00 | 0.00 | 0.00 | 63 | 1006.7 |
| 20260506151550 | 72 | 213 | 1.0 | 0.0 | 0.00 | 0.00 | 0.00 | 64 | 1006.8 |
| 20260506150059 | 71 | 220 | 1.0 | 0.0 | 0.00 | 0.00 | 0.00 | 65 | 1007.0 |
| 20260506144544 | 70 | 158 | 1.0 | 0.0 | 0.00 | 0.00 | 0.00 | 67 | 1006.9 |
| 20260506143041 | 70 | 237 | 1.0 | 0.0 | 0.00 | 0.00 | 0.00 | 68 | 1006.9 |
| 20260506141542 | 69 | 300 | 1.0 | 0.0 | 0.00 | 0.00 | 0.00 | 70 | 1006.8 |
| 20260506140035 | 67 | 190 | 0.0 | 0.0 | 0.00 | 0.00 | 0.00 | 73 | 1007.0 |
| 20260506134532 | 67 | 228 | 1.0 | 0.0 | 0.00 | 0.00 | 0.00 | 74 | 1007.2 |
| 20260506133029 | 66 | 223 | 1.0 | 0.0 | 0.00 | 0.00 | 0.00 | 76 | 1007.6 |
| 20260506131529 | 65 | 302 | 0.0 | 0.0 | 0.00 | 0.00 | 0.00 | 77 | 1007.5 |
| 20260506130024 | 64 | 234 | 0.0 | 0.0 | 0.00 | 0.00 | 0.00 | 79 | 1007.5 |
| 20260506124523 | 63 | 312 | 0.0 | 0.0 | 0.00 | 0.00 | 0.00 | 81 | 1007.8 |
| 20260506123020 | 63 | 255 | 1.0 | 0.0 | 0.00 | 0.00 | 0.00 | 81 | 1007.7 |
| 20260506121519 | 62 | 221 | 0.0 | 0.0 | 0.00 | 0.00 | 0.00 | 82 | 1007.5 |
| 20260506120038 | 62 | 355 | 0.0 | 0.0 | 0.00 | 0.00 | 0.00 | 82 | 1007.9 |
| 20260506114519 | 62 | 223 | 0.0 | 0.0 | 0.00 | 0.00 | 0.00 | 82 | 1008.0 |
| 20260506113017 | 61 | 284 | 0.0 | 0.0 | 0.00 | 0.00 | 0.00 | 83 | 1008.0 |
| 20260506111516 | 61 | 261 | 0.0 | 0.0 | 0.00 | 0.00 | 0.00 | 83 | 1007.9 |
| 20260506110015 | 61 | 201 | 0.0 | 0.0 | 0.00 | 0.00 | 0.00 | 83 | 1007.9 |
| 20260506104526 | 61 | 257 | 1.0 | 0.0 | 0.00 | 0.00 | 0.00 | 83 | 1007.9 |
| 20260506103033 | 61 | 234 | 1.0 | 0.0 | 0.00 | 0.00 | 0.00 | 83 | 1008.0 |
| 20260506101513 | 61 | 233 | 1.0 | 0.0 | 0.00 | 0.00 | 0.00 | 83 | 1007.9 |
| 20260506100012 | 60 | 296 | 0.0 | 0.0 | 0.00 | 0.00 | 0.00 | 83 | 1007.7 |
| 20260506094513 | 61 | 219 | 0.0 | 0.0 | 0.00 | 0.00 | 0.00 | 82 | 1007.7 |
| 20260506093019 | 61 | 228 | 1.0 | 0.0 | 0.00 | 0.00 | 0.00 | 82 | 1007.7 |
| 20260506091509 | 61 | 223 | 0.0 | 0.0 | 0.00 | 0.00 | 0.00 | 82 | 1007.8 |